Wind_Speed
18 16 15 14 13 13 14 14 13 14 14 13 11 10 11 12 12 11 10 10 10 10 9 7 7 7 6 7 9 10 12 13 14 14 14 15 14 15 16 17 17 18 18 18 18 18 17 17 16 16 17 17 17 17 17 17 17 17 17 17 16 17 17 17 17 18 18 18 19 19 20 20 21 21 21 21 22 22 22 22 21 21 20 20 19
15 14 15 15 13 13 14 13 13 14 14 13 11 10 11 13 13 11 9 10 12 11 8 7 9 10 9 8 9 9 11 12 13 13 12 12 12 13 15 17 18 18 18 19 19 18 17 17 17 17 17 18 18 17 17 18 18 18 18 18 18 18 18 18 19 19 19 20 20 20 20 21 21 21 22 22 22 22 23 23 23 22 22 21 21
14 14 15 15 14 14 13 13 13 13 13 12 10 10 11 12 13 11 9 11 12 10 9 9 9 9 8 8 7 7 8 9 11 11 9 9 9 11 14 15 16 17 18 18 18 18 18 17 17 17 17 17 18 18 18 18 18 19 19 20 20 20 20 20 20 20 20 21 21 22 22 22 22 22 22 22 23 23 23 23 23 23 23 22 22
14 15 15 15 14 13 13 13 13 13 13 11 10 10 11 12 13 11 9 11 11 8 8 9 8 6 6 6 6 6 6 7 8 8 6 6 8 11 13 14 14 14 15 16 16 17 17 16 16 16 16 17 18 18 19 19 19 20 20 21 21 22 22 22 22 22 22 22 23 23 23 23 23 23 23 23 23 23 23 23 23 23 23 23 22
14 15 15 15 14 13 13 14 14 14 12 11 11 10 9 10 11 10 10 10 10 8 6 7 7 5 4 5 6 6 6 6 5 5 5 7 10 12 12 11 11 11 12 12 13 14 15 16 16 16 17 17 17 18 19 19 19 20 20 21 22 22 23 24 24 24 24 24 24 24 24 24 25 25 24 24 24 24 24 24 24 23 23 23 23
13 14 15 15 14 13 13 14 14 13 12 11 11 9 7 7 9 10 10 9 9 7 5 5 4 2 2 2 4 6 5 4 4 5 6 9 12 11 9 9 9 9 10 10 11 12 13 14 15 16 17 18 18 18 19 19 20 20 21 21 22 23 24 25 25 26 26 26 26 25 25 25 25 25 25 25 25 25 25 25 24 24 24 24 24
13 14 14 14 14 13 13 13 13 13 13 11 10 8 7 6 8 10 10 10 9 7 6 5 4 3 2 2 3 4 3 3 4 5 6 9 9 7 6 8 8 8 9 10 10 11 11 12 14 15 16 17 17 18 19 20 21 21 22 22 22 23 24 25 26 27 28 28 28 27 26 26 26 25 25 26 26 26 26 26 26 25 25 25 25
14 15 15 14 14 13 12 12 12 12 11 10 8 7 7 6 7 9 11 10 9 7 5 6 5 5 4 4 4 4 3 4 4 4 6 7 5 4 4 6 7 7 7 8 8 8 9 10 11 12 14 15 15 16 18 21 23 24 24 23 23 24 24 25 26 27 29 29 29 29 28 27 27 26 26 26 26 26 27 27 27 27 27 27 27
14 14 14 14 13 12 11 11 11 10 9 8 7 6 6 6 6 7 10 11 10 6 4 4 4 5 5 4 4 4 4 4 4 4 5 5 3 4 4 4 5 6 6 6 6 5 5 5 6 7 8 9 10 13 16 19 22 24 25 25 25 26 26 26 26 27 29 30 30 30 30 29 29 28 27 27 27 27 27 27 27 28 28 28 28
12 11 12 12 12 11 10 11 10 10 9 8 7 7 7 6 6 6 7 10 10 6 3 3 4 4 5 4 4 3 3 4 4 3 3 2 2 3 3 4 4 5 5 5 4 3 3 3 3 4 4 4 6 9 12 15 18 20 22 24 25 26 27 27 26 27 28 30 31 31 30 30 30 30 29 28 28 28 28 28 28 28 29 29 29
9 9 10 10 10 10 10 11 10 9 8 8 8 7 7 7 7 6 7 9 9 8 6 4 4 4 3 4 3 3 2 3 2 2 1 1 2 3 4 4 4 5 5 4 3 3 3 3 4 4 5 5 7 8 10 11 13 14 17 20 22 23 24 25 25 25 26 28 30 30 31 31 31 30 30 30 30 30 30 30 30 30 30 30 30
7 8 9 10 10 10 10 10 10 9 8 8 8 8 8 8 8 8 8 9 10 10 9 7 6 5 4 4 3 2 2 2 3 3 2 2 3 4 4 4 5 5 5 4 4 4 4 4 5 6 7 7 8 9 10 10 11 12 13 15 19 21 22 22 22 23 23 25 27 29 30 31 31 31 31 31 31 31 32 31 31 31 30 30 30
7 9 10 10 10 10 10 10 9 8 8 8 8 8 8 8 9 9 9 9 9 10 10 9 9 6 5 6 5 3 4 4 3 3 3 3 4 5 6 6 7 7 6 6 6 7 6 6 7 8 8 8 8 9 10 10 10 11 11 12 15 18 20 20 20 20 20 21 23 27 29 30 31 31 32 32 31 31 32 32 32 32 31 31 30
9 10 12 12 11 11 11 11 10 9 9 9 8 8 9 9 9 10 9 8 9 9 9 10 8 6 6 7 6 6 6 6 4 3 4 4 4 5 7 8 9 8 8 8 9 8 9 9 9 9 9 9 9 10 11 10 10 10 10 10 11 14 16 18 18 17 18 18 19 24 28 29 30 30 30 31 31 30 30 31 32 33 32 31 31
11 12 13 13 13 13 12 12 12 10 9 9 9 10 10 10 11 11 10 9 9 9 9 9 7 6 8 8 8 8 8 7 5 5 5 6 6 7 9 10 9 9 9 10 10 10 10 11 11 11 10 10 11 11 11 10 10 10 11 11 10 10 12 14 16 16 17 17 18 21 25 27 28 29 28 29 30 30 30 30 31 32 32 31 30
12 12 12 12 13 13 13 13 13 11 10 10 11 11 11 11 12 12 11 10 10 9 9 9 9 9 9 10 10 10 9 8 7 7 7 8 9 10 10 10 9 9 11 11 11 11 11 12 12 12 11 11 12 12 12 11 11 11 11 11 11 10 9 10 12 13 14 15 16 18 21 23 25 27 27 25 25 27 28 28 28 29 30 30 29
12 13 13 12 12 13 12 13 13 12 11 11 12 13 13 12 13 13 12 12 11 11 10 10 10 10 10 11 11 11 10 9 9 9 9 9 9 10 11 10 10 10 12 12 12 12 12 12 12 13 13 13 13 12 12 12 12 12 12 12 12 12 10 9 9 11 12 13 14 15 17 19 20 22 23 22 21 23 25 26 25 26 27 28 28
13 13 13 12 11 12 12 11 12 12 11 12 13 14 13 13 13 13 13 12 12 12 11 11 11 11 12 12 12 12 10 11 11 9 9 9 9 10 11 11 11 11 12 12 13 13 12 13 13 13 14 14 13 13 13 13 13 13 13 13 13 12 11 10 10 11 11 12 13 14 15 17 18 19 21 21 22 22 24 25 24 24 24 25 26
12 12 12 11 10 11 11 11 10 11 10 11 12 13 13 13 13 13 13 12 12 12 12 12 12 12 12 13 13 12 11 11 11 10 9 8 8 9 11 12 12 12 12 13 14 14 13 13 13 13 14 14 13 13 13 13 14 14 14 14 14 13 13 12 12 13 13 14 14 15 15 16 17 17 18 19 20 21 22 23 24 24 25 25 25
10 11 11 10 10 10 10 10 10 10 9 9 10 11 12 13 13 13 13 12 12 12 12 13 13 13 13 13 13 12 11 11 11 10 10 9 10 10 11 11 12 13 14 14 15 14 13 13 13 13 13 13 13 12 12 13 13 14 14 14 14 14 14 14 14 15 16 17 18 18 19 19 19 19 18 18 19 21 22 23 23 24 25 26 25
9 9 9 9 9 9 9 10 10 10 9 10 10 11 11 12 13 13 13 13 13 13 14 14 14 14 14 14 13 12 12 12 12 11 11 11 11 11 11 11 12 13 14 15 14 13 12 13 13 13 12 12 11 11 11 12 13 13 14 14 14 14 15 15 16 16 17 18 19 21 21 22 22 22 21 21 22 22 23 23 24 24 25 26 26
8 9 9 9 8 8 8 9 9 10 10 11 12 12 13 13 13 13 14 14 14 14 14 14 14 15 15 14 13 13 13 13 13 12 12 12 12 11 10 11 13 13 14 14 13 12 12 13 13 12 11 11 10 10 11 11 12 12 12 13 13 14 15 15 16 17 18 19 20 21 22 22 23 23 23 23 24 24 24 24 24 25 25 26 27
9 9 10 10 8 8 7 6 7 8 9 11 12 13 14 14 15 15 15 14 13 14 14 13 14 14 14 14 13 13 13 14 13 12 12 12 11 10 10 11 12 13 13 13 13 12 12 12 12 12 11 10 9 9 10 10 10 11 11 12 12 13 14 14 15 16 17 18 19 20 21 22 22 23 23 23 24 24 24 23 23 24 24 25 26
11 11 12 11 10 9 8 6 5 6 7 9 10 11 12 13 14 15 15 14 13 13 13 13 13 14 13 13 13 13 13 13 12 11 11 11 11 11 11 11 12 13 12 12 12 11 12 12 12 11 10 9 9 9 9 9 9 10 10 10 11 11 12 13 13 14 15 16 17 18 19 20 21 21 22 23 23 23 23 23 22 22 22 23 23
11 12 13 13 13 13 11 9 8 7 8 8 8 9 10 12 13 14 14 15 14 14 14 14 14 14 13 13 13 13 13 13 12 11 11 12 12 11 10 11 12 12 12 12 12 11 11 11 11 10 9 9 9 8 8 8 9 9 9 9 10 10 11 12 12 13 13 14 14 15 16 17 17 18 18 19 20 20 20 20 20 20 20 21 22
12 13 14 13 14 14 14 13 12 12 12 12 11 11 11 12 12 13 13 14 15 15 14 14 14 14 13 13 12 13 12 12 11 11 12 12 10 9 10 11 12 11 12 13 12 11 11 10 10 10 9 8 8 8 8 8 8 9 9 9 9 10 10 11 11 12 12 12 13 13 14 14 14 14 14 14 15 15 15 15 16 16 16 17 18
10 12 13 13 13 14 14 14 15 15 15 15 15 15 14 13 13 12 13 13 14 14 14 14 14 14 13 12 12 12 11 10 10 11 12 11 9 9 11 11 11 12 12 13 12 12 11 10 9 9 9 8 8 8 8 8 9 9 9 10 10 10 11 11 11 11 12 12 12 12 12 13 12 12 12 12 12 12 12 13 13 13 13 13 14
7 9 12 12 12 12 12 14 15 16 16 16 17 17 16 16 15 14 13 14 14 14 14 14 14 13 12 11 11 10 10 10 11 13 13 11 10 10 11 11 11 11 11 11 11 12 12 11 10 10 9 9 9 9 9 9 10 10 10 11 11 11 12 12 12 12 12 12 12 12 12 12 12 12 11 11 11 11 11 12 12 12 12 12 13
6 7 8 9 10 9 10 11 12 12 14 15 16 17 18 17 17 16 15 14 14 13 13 13 13 12 12 11 11 11 11 11 12 13 13 12 12 11 11 12 11 11 10 11 11 12 12 13 12 11 11 11 10 11 11 11 11 12 12 12 12 13 13 13 13 13 13 13 13 12 12 12 12 12 12 12 12 12 12 12 13 13 13 14 14
6 6 7 8 8 8 8 9 9 9 10 12 14 16 17 17 17 17 16 15 14 14 13 13 13 13 12 11 11 11 12 12 12 13 12 11 10 10 11 12 12 11 11 11 11 12 13 14 13 13 13 13 12 12 12 13 13 13 13 13 14 14 14 14 14 14 14 14 14 14 14 14 13 13 13 14 14 14 14 14 14 15 15 15 16
9 8 8 8 9 9 8 8 7 7 7 9 11 13 15 16 17 17 16 15 15 14 14 13 13 13 12 11 11 11 11 11 12 11 10 9 10 11 12 12 12 12 12 12 12 13 14 14 14 15 15 14 14 14 13 13 14 14 14 14 15 16 16 15 14 14 15 15 15 15 15 15 14 14 15 15 16 16 16 16 16 17 17 17 17
12 11 10 10 10 9 8 8 7 6 7 8 9 11 13 15 15 15 15 15 15 14 14 13 12 12 11 11 11 11 11 11 10 9 8 8 10 11 11 12 12 12 12 13 14 15 15 14 15 15 14 14 15 15 14 14 14 14 14 15 17 17 16 15 15 15 15 16 16 15 15 15 15 15 15 16 17 17 18 18 18 18 19 19 19
13 13 12 11 11 10 10 9 8 7 7 8 9 10 11 12 13 14 14 14 14 14 14 13 12 12 12 12 12 11 11 10 9 9 9 9 10 11 12 12 12 12 13 13 15 15 14 14 15 15 13 13 14 15 15 15 14 14 15 17 18 18 16 16 16 15 15 15 15 15 15 16 16 17 17 18 19 19 19 20 20 20 20 20 20
14 14 13 13 12 11 10 9 8 8 8 8 8 9 9 10 11 12 12 12 12 12 12 12 12 12 12 13 12 12 12 12 11 11 11 11 12 13 13 14 14 14 14 14 15 14 13 13 14 14 13 13 13 13 14 15 14 14 15 17 18 18 17 16 16 16 16 16 17 17 18 19 20 20 20 20 21 21 21 21 22 22 23 23 23
15 14 14 13 12 12 10 9 9 8 9 9 8 8 8 9 10 10 10 9 9 10 10 10 11 11 12 12 12 13 13 13 13 14 14 13 14 14 14 14 14 14 15 16 15 13 12 13 13 14 14 15 14 14 14 15 14 15 17 18 18 18 18 18 17 17 17 18 19 20 21 22 23 23 23 23 23 23 24 24 25 26 27 28 28
15 14 13 13 12 12 11 10 10 10 10 10 10 9 9 9 9 9 9 9 9 9 9 10 10 11 11 11 12 12 13 14 14 15 15 15 15 16 15 13 13 14 15 16 15 14 13 14 15 15 15 15 15 15 15 15 15 15 17 19 19 19 19 19 19 19 20 21 23 24 25 26 26 26 27 27 27 28 29 29 30 30 31 32 33
17 16 14 14 13 13 12 11 11 11 11 12 11 11 11 10 10 10 10 10 10 10 10 10 10 11 11 12 12 12 13 14 14 15 15 15 15 16 16 15 14 14 15 16 17 16 15 16 17 17 17 16 16 17 17 17 17 18 19 20 21 21 21 22 22 22 23 24 26 28 28 29 29 30 31 32 32 33 34 34 35 35 36 37 37
18 17 16 16 15 15 14 14 13 13 13 13 13 13 13 12 12 12 12 11 11 11 12 12 13 14 14 15 15 14 13 14 14 14 14 14 15 16 17 17 17 16 17 17 18 18 18 18 19 20 20 19 18 19 19 19 20 21 22 23 23 23 24 25 25 26 27 28 29 30 31 32 32 33 34 34 35 36 37 39 39 40 41 42 43
19 18 18 18 18 17 17 16 15 15 14 14 14 15 15 14 14 14 13 13 14 14 15 16 16 17 17 17 17 16 16 15 16 16 15 15 15 16 17 18 18 19 20 20 20 20 21 21 22 23 24 23 23 23 23 23 23 23 24 25 25 25 26 28 29 30 31 31 32 32 33 33 34 34 35 36 37 39 41 42 43 45 46 47 47
20 20 19 19 20 19 19 19 17 17 16 16 16 16 16 16 16 16 15 15 16 17 17 18 18 19 19 19 18 18 18 18 17 18 18 18 17 18 19 20 20 21 22 23 23 22 23 24 25 25 26 26 27 27 27 27 27 27 28 29 29 28 29 30 32 33 33 33 33 33 32 33 34 36 37 38 39 40 42 43 44 46 47 48 48
21 21 21 21 21 20 20 20 19 19 18 18 18 18 17 18 18 17 17 17 18 18 19 20 20 21 22 22 21 21 20 20 20 21 22 22 21 21 21 22 23 23 24 26 26 26 25 25 26 27 28 28 29 30 30 30 31 31 32 32 32 32 31 31 31 32 32 32 33 33 34 35 36 37 38 38 39 41 42 43 44 44 45 47 48
22 22 22 22 22 22 22 22 21 21 21 20 20 20 20 20 20 19 19 18 19 19 19 20 21 23 24 25 25 24 24 24 25 26 26 26 26 26 25 25 25 25 25 26 28 29 29 28 28 28 29 30 30 31 31 31 32 33 33 33 33 33 31 30 30 32 33 34 34 35 36 37 38 38 38 39 40 41 42 43 43 43 44 46 47
23 23 24 25 25 25 25 24 23 23 23 22 22 22 22 22 21 21 20 19 19 20 20 21 22 22 24 26 26 26 27 28 28 29 29 29 29 28 28 28 28 28 28 28 29 30 32 31 31 31 31 32 31 30 31 32 32 33 33 34 34 33 32 32 33 35 36 37 37 37 37 38 39 39 39 39 40 41 42 42 43 44 45 47 48
25 26 27 28 28 27 27 26 25 24 24 24 24 24 24 24 23 23 22 22 21 21 22 22 23 24 26 27 27 27 27 28 30 30 30 30 30 30 30 31 31 31 32 32 32 32 33 34 34 34 34 33 32 31 32 33 33 33 33 33 33 33 34 36 37 38 38 39 39 39 39 39 39 39 39 39 39 41 41 41 42 44 46 47 48
28 29 29 30 29 28 27 27 26 25 26 26 27 27 27 26 26 25 25 24 24 24 24 24 25 26 26 27 27 28 28 29 30 30 31 31 31 31 32 32 32 33 34 35 36 36 36 37 37 37 36 35 34 35 36 36 35 34 33 33 34 35 37 38 39 39 39 39 40 41 40 39 38 39 39 40 41 42 41 42 44 46 47 48 48
30 30 30 30 30 29 28 28 27 27 28 29 30 30 30 30 29 29 29 28 27 27 27 27 28 28 28 29 29 30 31 31 31 31 31 31 31 31 32 33 34 36 37 37 38 39 38 38 39 40 39 37 37 38 39 39 38 36 35 35 36 37 38 39 39 40 40 40 40 40 39 38 38 39 41 42 42 43 43 44 46 48 49 50 50
31 31 31 31 31 31 30 31 31 31 32 32 32 33 33 32 33 33 33 33 32 30 29 29 30 31 32 33 33 34 34 34 34 34 34 34 35 35 35 37 39 40 41 40 40 40 40 39 39 40 40 39 39 41 41 40 38 37 36 37 38 38 39 40 40 40 40 40 39 39 39 39 40 42 43 44 44 45 45 47 49 51 52 53 54
33 33 33 33 34 34 35 35 36 36 36 36 36 37 37 37 37 38 38 38 37 34 32 31 32 33 35 36 37 39 39 37 37 37 36 37 40 40 40 41 43 43 43 43 42 41 40 40 40 39 39 40 40 41 40 38 38 38 39 40 40 40 41 41 41 41 41 41 40 40 41 42 44 45 45 46 46 46 48 50 53 54 56 57 58
36 37 37 38 38 38 39 40 41 41 41 41 40 41 42 43 43 43 42 42 41 40 36 34 34 35 37 38 39 41 43 42 41 40 39 40 42 41 41 42 43 44 43 43 43 43 42 41 41 40 39 38 38 39 39 39 41 42 42 43 43 43 42 42 41 42 42 42 41 42 43 44 45 46 46 46 47 48 51 53 55 57 59 61 62
39 40 40 41 42 42 43 44 45 46 45 45 45 46 47 48 48 47 45 44 44 44 43 40 39 40 41 41 41 42 45 45 44 43 42 42 42 41 41 42 42 42 42 43 44 45 44 43 43 42 41 40 40 40 41 42 43 43 43 44 44 44 43 43 43 43 43 43 42 44 45 46 46 46 46 46 48 50 53 55 57 59 61 62 64
42 43 43 44 44 46 47 47 48 48 49 49 49 50 51 51 50 49 47 46 46 47 47 47 46 46 46 46 45 45 46 47 47 46 45 45 44 44 44 45 44 42 42 44 46 47 47 46 45 43 42 41 41 41 42 42 43 43 43 43 44 44 45 45 45 45 44 43 43 45 47 47 47 47 47 48 49 52 54 56 58 61 62 63 65
Wind_Direction
230 224 226 229 232 240 248 255 263 263 259 258 258 254 249 250 249 247 254 260 251 239 228 212 201 197 199 211 214 217 222 226 230 231 232 234 237 242 245 248 249 250 252 251 249 245 242 241 242 242 243 244 243 243 245 247 250 252 253 253 254 256 258 259 260 261 261 262 262 261 259 257 256 255 255 254 254 254 254 256 257 259 261 263 264
221 223 225 227 237 246 253 259 264 262 257 256 257 253 249 244 236 234 244 244 239 233 218 200 193 186 192 208 210 214 220 226 232 232 233 236 239 245 248 252 254 256 257 258 258 255 252 250 249 249 248 247 247 245 245 246 249 251 253 254 254 254 255 257 259 260 260 261 261 262 262 261 260 258 257 257 256 256 256 256 257 258 260 261 262
217 225 224 230 244 251 257 262 262 258 255 255 253 248 247 237 229 234 237 232 232 230 218 204 190 180 188 206 211 214 221 227 231 231 232 236 241 246 249 251 253 256 258 260 261 260 259 256 254 253 252 249 248 248 246 245 245 247 249 252 253 254 254 254 256 257 258 259 259 259 260 261 261 260 259 259 259 259 259 259 259 260 260 260 261
224 229 230 240 251 254 258 260 258 256 256 255 249 244 245 238 232 232 227 221 222 224 220 203 194 189 183 195 214 223 226 230 231 231 232 236 241 244 244 244 246 250 253 256 258 260 261 259 257 256 254 251 250 250 250 248 245 245 247 249 251 253 253 253 253 254 256 257 257 258 258 259 261 261 261 261 261 261 261 262 262 262 262 262 262
232 232 237 246 250 250 253 255 256 256 255 252 246 240 238 237 233 224 216 212 208 212 211 200 209 222 192 191 224 238 238 237 234 228 231 239 242 243 244 243 247 256 260 260 261 262 262 261 259 257 256 253 252 253 253 252 249 248 247 249 251 252 253 254 253 253 253 254 256 257 258 258 259 261 261 262 262 263 263 263 264 264 264 264 264
236 236 241 246 246 246 248 252 253 254 251 247 245 238 230 234 231 219 206 195 192 196 204 212 217 231 223 203 228 244 248 244 225 211 222 234 239 243 251 254 258 270 273 268 265 264 264 261 259 257 256 255 255 255 255 254 254 252 251 251 252 253 253 254 253 252 251 252 253 255 256 257 258 259 260 262 263 264 264 265 265 265 266 266 266
238 242 246 247 246 245 246 248 251 252 248 243 243 240 234 234 229 218 203 187 187 190 199 211 178 149 217 209 216 244 256 236 209 192 215 231 238 248 263 266 266 269 270 267 265 264 263 260 258 257 255 254 255 256 258 258 257 255 254 253 253 254 255 256 255 254 252 251 251 252 254 256 257 258 259 260 262 263 264 265 266 266 267 267 267
247 248 250 247 246 248 249 249 248 247 245 240 238 240 238 232 226 223 214 203 201 196 202 211 179 167 203 211 217 235 236 225 209 200 227 240 254 261 264 269 266 262 264 266 267 268 268 263 260 259 258 258 260 262 264 263 262 259 256 254 253 253 255 257 258 256 254 252 251 251 251 253 255 256 258 259 260 261 262 264 265 266 267 267 267
247 244 245 246 249 252 250 248 243 239 239 234 229 232 233 227 230 235 223 212 206 197 197 212 196 177 185 196 206 209 204 204 200 211 233 252 267 253 250 263 263 259 263 268 274 284 287 276 267 265 264 266 269 271 271 270 268 265 261 257 255 255 255 256 258 257 255 252 250 250 250 251 252 253 255 256 258 260 261 263 264 265 266 266 267
232 234 240 247 251 248 240 238 235 235 238 232 225 225 226 222 229 235 214 202 198 196 203 214 216 196 178 184 195 199 193 192 200 212 232 257 265 246 239 247 251 254 264 272 279 291 287 278 271 269 268 270 273 280 284 282 280 273 266 260 258 259 258 257 258 258 256 251 249 250 250 250 251 252 253 254 256 258 260 262 263 264 265 266 267
234 237 242 245 243 237 235 237 238 239 238 232 228 225 225 222 222 221 209 208 209 216 232 229 232 235 203 193 199 207 204 202 224 247 262 249 250 240 228 230 238 247 262 275 282 273 267 264 262 260 263 268 276 287 294 296 295 287 273 262 258 259 259 258 258 258 256 251 248 248 249 250 251 252 254 254 255 256 257 259 260 262 263 264 266
252 249 247 245 240 236 239 244 245 245 240 235 233 233 229 221 221 222 220 226 229 232 240 237 239 248 237 227 232 237 234 230 241 263 281 268 257 258 252 246 248 253 263 271 272 268 269 268 261 259 261 268 277 287 294 300 303 302 291 272 261 259 259 261 261 259 257 253 249 248 249 250 251 252 253 254 255 256 256 257 258 260 261 263 265
257 257 255 253 247 244 244 246 245 243 240 238 240 241 234 223 224 227 226 229 233 235 239 239 243 248 246 250 258 262 251 245 249 261 269 262 263 273 278 269 263 264 265 266 271 277 281 276 269 266 266 271 280 285 290 296 301 304 305 294 275 266 263 264 264 262 261 259 253 249 249 251 252 252 253 253 254 257 258 258 258 259 260 262 264
254 256 257 256 253 249 248 249 248 244 238 236 235 236 234 230 227 228 229 231 234 236 235 234 235 233 238 247 249 247 244 246 250 255 259 260 265 275 276 271 268 271 274 278 282 284 284 281 277 274 275 280 284 286 288 292 298 301 305 306 296 280 269 265 265 265 265 263 256 248 245 248 251 252 254 255 255 258 260 258 257 256 258 261 263
254 251 251 251 252 251 249 251 252 249 243 237 235 234 231 226 224 226 228 228 233 238 233 228 225 222 228 230 230 235 240 242 242 245 249 250 251 254 257 259 264 273 279 281 280 279 280 279 278 278 282 285 283 284 286 287 291 298 304 307 306 295 278 268 266 267 267 264 258 249 245 247 251 252 255 258 258 259 260 260 257 256 258 262 264
260 258 253 249 252 252 250 250 250 247 240 235 234 233 227 222 223 226 230 229 230 231 228 227 229 226 224 221 224 231 236 237 235 236 237 239 245 249 249 252 262 272 274 273 271 270 270 272 277 283 285 281 278 279 281 283 285 290 298 303 304 301 292 277 268 266 265 264 261 255 251 252 253 253 256 261 262 260 261 262 261 260 262 264 265
262 260 256 251 247 245 246 248 250 248 239 233 234 233 228 227 230 231 233 233 229 225 225 230 230 224 220 222 228 234 237 240 238 233 230 231 239 249 254 256 260 266 271 272 268 263 264 271 280 284 280 275 274 275 276 278 281 283 289 294 297 299 298 289 274 267 264 263 263 261 259 259 258 257 259 264 266 263 264 265 265 265 265 265 264
261 260 259 255 246 241 241 244 247 248 244 240 241 240 235 233 235 236 236 235 231 226 226 228 226 219 220 225 232 236 238 241 243 240 234 232 235 244 255 260 261 263 266 267 262 259 266 276 279 277 275 275 274 273 274 275 277 279 282 285 287 290 292 289 279 272 268 266 266 266 265 265 264 263 264 266 268 267 267 268 270 270 269 268 267
260 260 261 259 251 244 242 243 246 249 249 246 245 245 243 240 239 240 238 237 235 231 229 230 228 226 227 230 234 237 237 241 247 248 246 245 242 244 252 259 263 264 261 258 257 262 271 276 276 274 274 276 276 275 276 276 277 279 280 281 281 281 281 279 275 273 272 271 271 272 271 270 271 271 271 271 271 271 271 270 271 270 270 270 271
263 260 259 257 253 248 246 247 248 250 250 248 248 247 247 246 245 244 243 241 239 236 235 235 236 236 237 238 239 241 241 246 251 252 251 252 250 250 252 255 259 261 260 258 259 265 271 273 273 273 273 274 275 277 277 278 279 280 281 281 280 280 278 276 274 272 271 273 273 274 274 274 275 274 273 271 271 272 273 273 272 271 271 271 271
264 259 254 249 246 242 243 245 247 249 248 247 250 252 252 254 254 251 249 244 242 242 240 239 241 243 246 247 248 247 247 249 251 250 251 253 252 252 251 250 252 257 259 261 264 267 269 271 271 273 274 275 276 277 277 278 278 279 279 280 279 279 279 277 276 274 272 272 273 273 274 274 274 273 272 271 272 274 275 275 275 274 273 273 272
260 255 252 249 244 238 235 238 242 247 249 250 253 256 258 260 259 256 250 247 246 247 245 243 244 247 250 252 252 250 247 248 248 249 252 254 255 254 251 248 248 251 256 260 265 267 267 269 271 273 274 276 277 278 279 278 278 278 278 278 278 277 276 276 275 274 274 273 273 274 274 274 274 273 273 273 274 276 277 276 276 275 274 273 273
259 253 251 251 250 245 237 234 239 246 249 251 253 256 259 260 260 258 255 253 250 249 250 250 250 252 254 256 254 250 248 247 248 250 253 256 257 256 253 250 249 252 256 259 262 263 265 267 268 270 273 275 276 277 278 278 279 281 280 280 279 277 276 275 275 274 274 273 273 274 275 275 275 275 275 275 275 276 277 277 276 276 275 274 272
262 255 250 247 245 245 241 231 233 244 250 252 253 257 261 262 264 263 263 262 256 252 253 253 253 253 253 253 252 250 249 249 249 251 253 253 251 251 251 248 248 252 257 259 261 263 265 265 267 269 272 274 275 275 275 276 277 278 279 278 277 276 275 273 273 273 273 274 275 276 277 278 278 278 278 277 277 277 278 278 278 277 276 275 274
260 256 251 245 241 243 244 240 242 250 256 260 260 259 258 261 265 267 268 267 263 258 255 252 252 250 249 249 248 247 246 246 249 251 251 249 248 248 244 240 242 247 253 256 255 256 259 262 265 269 270 271 273 274 273 273 273 274 275 276 275 273 272 271 272 272 274 275 277 279 281 282 283 284 284 283 282 282 282 282 282 281 279 278 277
253 250 249 246 242 242 246 249 252 255 258 261 260 257 255 256 260 263 265 265 263 260 255 252 250 247 244 241 239 239 241 245 249 248 248 251 249 238 230 234 239 241 246 252 251 247 248 253 258 263 266 268 271 273 275 274 272 273 273 275 275 275 275 274 274 275 276 277 279 281 283 286 288 291 293 294 293 292 292 291 291 289 287 284 282
246 240 242 244 243 243 247 251 255 258 259 259 258 256 255 254 253 253 252 252 254 253 250 248 247 246 245 242 241 241 244 246 244 240 246 252 245 229 229 238 240 237 242 250 252 249 248 250 253 256 259 264 267 268 272 273 273 272 272 271 273 275 276 276 277 277 278 278 279 281 283 286 290 294 298 301 303 304 305 305 305 303 300 296 292
246 235 236 240 242 243 245 249 253 256 257 257 257 257 256 255 253 250 247 245 246 247 247 248 250 251 250 247 245 244 242 238 230 230 237 240 237 234 241 245 239 235 239 245 248 250 251 252 255 258 259 264 268 268 270 274 274 273 271 271 271 271 273 274 276 277 277 278 279 281 283 286 289 293 296 299 302 304 305 306 306 306 305 303 300
246 236 234 235 236 237 238 244 250 251 252 252 254 254 255 255 254 252 249 246 246 248 249 251 253 253 252 249 246 243 242 237 228 227 229 231 235 242 248 251 246 241 240 243 247 251 254 257 260 264 264 265 270 271 270 272 274 274 273 273 272 271 271 271 272 274 276 279 281 282 283 284 286 289 292 294 296 297 298 298 299 299 300 299 299
246 234 232 232 234 237 240 245 249 251 252 252 253 254 254 254 253 252 251 250 250 250 251 253 254 255 255 254 253 251 249 245 238 233 230 229 232 237 244 250 253 251 249 249 251 255 259 261 263 265 266 267 269 273 274 274 274 274 275 275 275 272 270 270 271 273 275 278 279 279 280 280 281 283 286 289 290 291 292 293 294 294 295 295 295
250 241 238 240 243 246 247 250 251 254 259 260 259 259 257 256 255 255 255 254 254 253 253 253 253 255 255 253 250 248 248 246 245 243 240 235 231 233 238 245 252 258 260 261 260 260 261 263 263 264 267 269 267 268 272 273 273 274 274 274 272 270 269 270 271 273 274 275 275 275 276 277 278 281 284 287 288 289 289 290 291 291 292 292 292
249 245 245 248 251 252 253 256 259 261 264 265 264 264 262 261 260 259 259 258 257 256 256 256 254 253 252 250 248 247 248 250 252 254 253 250 248 248 251 254 258 261 262 263 264 263 263 265 265 264 268 273 272 271 271 270 270 272 272 270 267 266 267 269 269 270 270 271 272 274 278 280 281 283 286 287 288 288 288 288 288 289 289 290 291
246 247 249 252 253 254 257 260 264 266 264 263 264 265 267 267 265 263 262 262 261 261 261 262 262 261 260 258 256 255 257 260 263 265 266 267 268 269 269 268 266 264 261 259 259 261 264 266 267 266 266 268 270 272 272 271 269 269 268 267 267 267 268 267 267 268 267 268 270 275 281 284 286 287 288 289 290 290 290 290 290 290 290 290 290
244 247 249 252 253 254 257 261 265 266 262 260 260 261 265 266 267 266 265 265 264 265 266 267 267 267 267 266 267 268 271 273 275 276 277 278 279 278 278 276 274 272 268 264 260 260 260 261 265 268 268 265 265 268 271 273 276 276 272 268 268 269 268 266 267 268 269 270 271 276 283 288 290 291 292 293 294 295 295 295 296 295 294 293 293
244 248 250 252 253 255 257 261 265 266 264 265 266 265 263 261 261 262 263 264 266 267 269 268 268 269 269 271 273 276 277 277 278 279 278 278 278 278 278 278 278 277 274 270 266 262 258 257 259 262 264 265 265 264 265 269 274 278 275 272 272 273 273 272 273 274 276 277 278 282 287 291 292 292 293 294 294 295 295 295 295 295 294 293 293
248 251 253 254 256 257 259 262 265 265 266 268 270 270 269 266 265 263 261 262 265 267 268 268 269 271 275 277 279 280 280 280 279 279 279 278 277 276 275 274 274 275 275 274 272 269 265 263 263 262 261 263 264 265 265 266 271 275 276 276 277 279 279 278 279 280 281 283 284 287 290 293 294 295 295 295 294 293 292 292 291 290 290 289 289
251 252 254 256 259 261 263 266 268 269 272 275 278 280 279 275 274 274 273 273 274 276 277 278 282 285 288 290 290 290 288 286 284 282 281 281 280 279 279 277 274 271 271 273 273 272 269 268 267 265 262 260 262 265 268 270 272 273 273 273 275 277 277 276 277 278 279 281 284 287 290 291 292 292 291 291 290 289 289 288 288 288 287 287 287
250 249 252 254 257 259 261 264 267 270 275 280 283 286 285 282 282 282 283 284 286 289 292 296 301 304 307 308 308 304 298 291 287 283 282 281 281 281 282 282 281 278 274 273 273 274 274 274 274 274 273 270 267 266 268 269 270 270 271 271 272 273 274 274 275 276 277 279 281 282 284 284 284 284 285 285 286 287 288 288 288 288 288 288 288
247 247 249 251 253 255 256 259 263 266 271 275 278 280 281 281 283 285 287 289 292 295 298 302 306 310 313 315 314 311 303 295 291 289 287 285 284 284 283 283 283 283 281 279 278 279 281 282 281 280 281 280 277 274 272 271 271 272 274 275 276 277 277 276 276 275 274 274 274 275 276 277 279 280 281 283 284 286 287 287 287 287 287 288 288
245 246 247 248 250 253 255 257 260 263 266 269 271 274 276 278 281 283 286 289 292 295 297 300 303 306 307 308 308 305 300 296 294 292 291 289 287 284 282 281 281 282 282 281 278 276 277 279 279 278 278 278 277 275 273 271 271 271 272 273 274 275 276 276 275 273 272 271 272 273 274 277 281 283 284 285 286 287 288 288 288 288 288 289 289
245 245 245 246 249 253 254 256 258 261 265 267 268 270 273 275 277 280 284 287 289 292 295 298 300 301 301 300 299 296 293 290 289 288 289 290 289 286 283 281 280 280 280 279 278 275 273 272 272 274 275 276 276 273 270 269 269 269 269 269 269 271 273 272 271 270 271 273 276 279 282 284 287 289 289 290 291 291 291 292 292 292 293 293 294
244 244 245 246 248 252 255 256 258 261 264 266 268 269 271 272 274 277 280 282 284 287 291 294 296 297 297 296 295 292 290 287 286 286 287 289 290 289 287 285 284 283 281 280 280 279 276 273 271 272 275 279 278 273 267 265 266 268 269 269 271 272 273 272 273 274 275 277 279 283 286 288 289 291 292 293 293 294 295 295 295 296 297 297 297
243 245 247 248 250 252 254 256 258 260 262 264 266 267 268 269 271 272 273 276 280 284 288 291 292 292 292 291 290 288 287 286 286 285 286 287 288 288 286 285 285 284 284 282 280 280 279 276 273 273 275 278 279 273 268 266 267 269 269 270 270 270 271 274 277 278 279 279 280 282 285 287 288 290 291 292 293 294 294 294 296 297 298 298 297
245 247 249 250 251 252 254 255 257 259 262 264 265 264 265 266 266 266 270 275 279 283 286 288 290 290 290 290 288 286 285 284 284 284 284 284 284 283 282 282 282 283 283 282 281 279 279 278 276 274 275 276 275 272 269 269 269 269 268 267 267 268 272 276 278 277 278 279 281 283 285 286 287 288 290 290 291 291 292 293 296 300 301 301 300
246 248 249 250 251 252 253 254 255 259 262 264 265 264 264 265 265 266 270 274 277 279 283 285 287 287 288 287 286 284 284 283 283 283 283 281 281 280 281 282 283 283 283 283 282 280 278 278 277 277 276 275 273 271 271 271 271 270 268 266 267 271 274 276 276 275 277 279 281 283 283 284 286 288 290 291 291 291 292 295 299 304 306 306 305
244 245 246 248 249 250 251 252 254 258 261 263 264 264 264 265 266 268 271 272 272 275 280 284 287 288 286 283 281 282 282 283 282 283 283 282 280 280 282 283 284 285 285 284 282 281 279 277 277 277 276 274 271 270 271 272 272 270 268 268 270 273 275 274 274 274 276 278 279 279 281 284 288 291 293 293 293 293 294 296 300 305 308 309 308
248 248 248 249 250 251 252 253 254 257 259 260 260 261 262 264 266 268 269 269 268 271 277 282 286 289 288 286 283 281 280 280 280 281 282 281 279 280 283 283 283 284 285 284 281 279 278 276 276 277 276 273 272 272 272 272 271 271 272 273 274 275 274 274 273 274 276 278 278 279 282 286 290 293 295 295 294 295 296 298 301 305 308 309 309
251 251 252 252 252 253 255 255 256 258 260 260 260 260 260 261 264 265 266 265 264 266 271 277 282 286 287 286 284 283 280 279 279 279 280 279 278 281 283 283 282 283 284 283 280 277 276 275 275 276 274 271 270 271 272 272 272 274 276 277 277 276 275 274 275 277 279 280 280 281 285 288 291 294 296 296 296 297 300 302 305 307 309 310 310
253 253 253 254 254 255 256 257 258 259 261 262 262 262 261 261 262 263 263 261 260 262 265 271 276 280 282 282 281 281 280 279 278 277 277 277 278 280 281 281 282 284 285 284 280 276 274 274 275 274 272 269 268 269 271 272 274 276 277 277 276 276 275 275 277 280 281 280 280 282 285 290 294 295 296 297 298 300 302 305 307 309 310 310 311
256 256 256 257 257 258 259 260 261 261 262 262 262 263 263 263 264 264 262 259 258 260 264 269 273 277 281 282 280 278 277 277 277 277 277 276 277 278 278 279 280 281 282 281 278 274 273 273 273 272 271 269 269 270 271 272 273 274 274 274 274 274 275 275 277 280 279 278 280 283 287 294 297 297 298 299 300 302 304 307 309 308 309 310 310
262 261 260 259 259 259 260 262 262 262 262 262 264 264 263 264 265 265 263 260 258 259 264 269 273 276 281 283 281 278 276 275 276 277 276 277 277 277 277 278 277 276 275 274 274 274 274 273 272 271 270 270 270 270 271 271 272 273 272 273 273 273 273 274 277 279 277 276 279 284 290 296 299 299 300 300 301 304 306 308 307 306 307 309 309
Height
5811 5812 5813 5814 5814 5814 5815 5815 5816 5816 5817 5818 5818 5819 5819 5818 5818 5818 5818 5818 5818 5816 5817 5817 5817 5817 5818 5819 5820 5821 5821 5821 5820 5821 5822 5822 5824 5824 5825 5825 5826 5826 5826 5827 5828 5829 5829 5829 5829 5829 5829 5829 5830 5830 5830 5831 5830 5830 5830 5830 5830 5830 5830 5830 5830 5830 5830 5830 5830 5830 5830 5830 5830 5831 5831 5832 5832 5832 5832 5832 5833 5833 5833 5833 5833
5811 5812 5812 5812 5813 5813 5813 5814 5814 5815 5816 5817 5817 5817 5817 5817 5817 5817 5817 5817 5816 5816 5816 5816 5816 5816 5817 5818 5818 5819 5819 5819 5819 5819 5820 5822 5823 5823 5823 5823 5824 5824 5825 5825 5826 5827 5828 5828 5828 5828 5828 5828 5828 5829 5829 5829 5829 5829 5829 5829 5829 5829 5829 5829 5829 5828 5828 5828 5828 5828 5829 5829 5829 5829 5829 5829 5830 5830 5830 5830 5831 5831 5831 5831 5831
5811 5811 5811 5811 5811 5812 5812 5813 5813 5814 5815 5816 5815 5815 5815 5816 5816 5817 5817 5816 5816 5816 5816 5815 5815 5815 5815 5816 5817 5817 5817 5817 5817 5818 5820 5821 5822 5822 5821 5821 5822 5823 5823 5824 5824 5825 5826 5826 5826 5826 5827 5827 5827 5827 5827 5828 5828 5828 5828 5827 5827 5827 5827 5827 5827 5827 5827 5826 5826 5826 5827 5827 5827 5827 5827 5827 5827 5828 5828 5828 5829 5829 5829 5829 5829
5810 5810 5810 5810 5810 5810 5811 5811 5812 5813 5814 5814 5814 5814 5814 5815 5815 5816 5816 5815 5815 5816 5815 5814 5815 5816 5815 5816 5816 5816 5816 5815 5816 5817 5819 5821 5820 5819 5819 5819 5820 5821 5822 5822 5822 5823 5823 5824 5824 5824 5824 5825 5825 5826 5826 5826 5826 5826 5826 5826 5826 5825 5825 5825 5825 5825 5825 5825 5824 5824 5824 5825 5825 5825 5825 5825 5825 5826 5826 5826 5827 5827 5827 5827 5828
5808 5809 5809 5809 5809 5809 5810 5810 5811 5811 5812 5812 5812 5813 5813 5814 5814 5814 5815 5815 5815 5816 5814 5813 5814 5814 5815 5815 5815 5814 5814 5815 5815 5817 5819 5819 5817 5816 5817 5818 5820 5820 5821 5821 5821 5821 5821 5821 5822 5822 5822 5823 5823 5824 5824 5824 5824 5824 5824 5824 5824 5824 5823 5823 5823 5823 5823 5822 5822 5822 5822 5823 5823 5823 5823 5823 5824 5824 5824 5824 5824 5825 5825 5825 5826
5807 5808 5808 5808 5808 5809 5809 5809 5810 5810 5811 5811 5812 5812 5812 5812 5813 5813 5814 5814 5815 5815 5814 5813 5812 5812 5813 5814 5814 5813 5814 5814 5815 5817 5817 5816 5814 5815 5817 5818 5819 5819 5819 5819 5819 5819 5819 5820 5820 5820 5820 5821 5821 5822 5822 5822 5822 5822 5822 5821 5821 5821 5821 5821 5821 5820 5820 5820 5820 5820 5820 5820 5821 5821 5821 5821 5821 5822 5822 5822 5822 5822 5822 5823 5823
5806 5807 5807 5807 5808 5808 5808 5809 5809 5810 5810 5811 5811 5812 5811 5811 5811 5812 5813 5813 5814 5814 5814 5813 5812 5811 5813 5814 5814 5813 5813 5814 5814 5816 5815 5813 5814 5816 5817 5817 5817 5818 5818 5818 5818 5818 5818 5818 5818 5818 5818 5819 5819 5819 5819 5819 5819 5819 5819 5819 5819 5819 5818 5818 5818 5818 5818 5818 5818 5818 5818 5818 5818 5819 5819 5819 5819 5819 5819 5819 5820 5820 5820 5820 5821
5805 5805 5805 5806 5806 5807 5808 5808 5808 5809 5809 5810 5810 5811 5810 5810 5810 5811 5812 5812 5813 5814 5814 5813 5812 5812 5814 5814 5813 5813 5812 5813 5814 5815 5813 5813 5815 5816 5816 5815 5816 5816 5816 5816 5816 5816 5816 5816 5816 5816 5816 5817 5817 5817 5817 5816 5816 5816 5816 5816 5816 5815 5815 5815 5815 5815 5815 5815 5816 5816 5816 5816 5816 5817 5817 5817 5817 5817 5816 5817 5817 5817 5817 5818 5818
5803 5804 5804 5804 5805 5806 5807 5807 5808 5808 5808 5809 5809 5809 5809 5809 5809 5810 5811 5811 5812 5813 5813 5813 5812 5812 5813 5813 5813 5813 5812 5812 5814 5814 5812 5813 5815 5815 5814 5814 5814 5814 5815 5815 5815 5815 5815 5814 5814 5814 5815 5815 5815 5815 5814 5813 5813 5813 5813 5813 5812 5811 5811 5811 5811 5812 5812 5813 5813 5813 5814 5814 5814 5814 5814 5814 5814 5814 5814 5814 5814 5814 5815 5815 5815
5802 5802 5802 5803 5804 5805 5806 5806 5807 5807 5808 5808 5808 5808 5808 5808 5808 5809 5809 5809 5810 5811 5811 5811 5812 5812 5812 5812 5812 5812 5812 5812 5812 5812 5812 5813 5813 5813 5814 5813 5813 5814 5814 5814 5814 5814 5813 5813 5813 5813 5813 5813 5813 5812 5811 5811 5810 5810 5810 5809 5809 5809 5808 5808 5808 5809 5809 5810 5810 5811 5811 5811 5812 5812 5812 5812 5812 5812 5812 5812 5812 5812 5812 5812 5812
5800 5801 5801 5803 5804 5804 5805 5805 5806 5807 5807 5807 5807 5807 5808 5807 5807 5807 5808 5809 5809 5809 5810 5810 5811 5811 5811 5811 5812 5812 5812 5811 5811 5811 5811 5812 5812 5812 5813 5813 5813 5813 5813 5814 5813 5813 5812 5812 5812 5812 5811 5811 5811 5810 5810 5809 5808 5807 5807 5806 5805 5806 5805 5805 5806 5806 5806 5806 5807 5808 5809 5809 5809 5809 5809 5809 5809 5809 5809 5809 5809 5810 5810 5810 5810
5800 5800 5801 5802 5803 5804 5804 5804 5805 5805 5806 5806 5806 5806 5806 5806 5806 5806 5807 5808 5808 5808 5809 5809 5809 5810 5810 5810 5811 5810 5810 5810 5810 5810 5810 5811 5811 5811 5812 5812 5812 5812 5813 5813 5812 5812 5811 5811 5811 5810 5809 5809 5809 5808 5808 5807 5806 5806 5805 5803 5803 5803 5803 5803 5804 5804 5804 5803 5804 5805 5806 5807 5806 5806 5806 5806 5806 5806 5807 5807 5807 5807 5807 5807 5807
5800 5800 5801 5801 5802 5803 5803 5803 5803 5803 5804 5804 5805 5805 5805 5805 5805 5805 5806 5807 5807 5808 5808 5808 5808 5808 5808 5809 5809 5809 5809 5809 5809 5810 5810 5810 5810 5811 5811 5811 5811 5811 5812 5812 5811 5811 5810 5810 5809 5808 5808 5807 5807 5806 5806 5805 5804 5804 5803 5802 5802 5801 5801 5802 5802 5802 5801 5801 5802 5803 5804 5804 5804 5803 5803 5803 5803 5804 5804 5804 5805 5805 5805 5805 5805
5800 5800 5800 5800 5801 5802 5802 5801 5801 5801 5802 5802 5803 5803 5804 5804 5804 5805 5805 5806 5806 5806 5807 5807 5807 5807 5807 5808 5808 5808 5808 5808 5809 5809 5809 5809 5810 5810 5809 5809 5810 5810 5810 5810 5810 5809 5809 5808 5807 5806 5806 5806 5805 5804 5804 5803 5802 5802 5801 5801 5800 5800 5800 5800 5800 5800 5799 5799 5800 5801 5801 5800 5800 5800 5799 5800 5800 5801 5801 5801 5801 5802 5802 5802 5803
5798 5799 5799 5799 5800 5800 5800 5800 5800 5800 5800 5800 5801 5801 5802 5803 5803 5804 5804 5805 5805 5805 5806 5806 5806 5806 5807 5807 5808 5808 5808 5808 5808 5808 5808 5808 5808 5808 5808 5808 5809 5809 5809 5809 5808 5808 5807 5806 5805 5805 5805 5804 5803 5802 5802 5801 5800 5800 5799 5799 5799 5798 5798 5798 5798 5798 5797 5797 5798 5797 5796 5796 5796 5796 5796 5797 5797 5797 5797 5798 5798 5799 5799 5800 5800
5796 5797 5797 5798 5798 5798 5799 5799 5798 5799 5799 5799 5799 5800 5800 5801 5802 5803 5803 5803 5804 5804 5805 5805 5805 5805 5806 5806 5806 5806 5807 5807 5807 5807 5807 5807 5807 5807 5807 5807 5808 5808 5807 5807 5807 5806 5805 5804 5803 5803 5803 5802 5802 5801 5800 5800 5799 5798 5798 5797 5797 5797 5797 5796 5796 5796 5795 5795 5795 5794 5793 5793 5794 5794 5794 5795 5795 5795 5795 5795 5795 5796 5796 5797 5797
5794 5795 5796 5796 5796 5797 5797 5797 5797 5797 5798 5798 5798 5798 5799 5799 5800 5801 5801 5802 5802 5803 5803 5804 5804 5804 5804 5804 5804 5804 5805 5805 5806 5806 5806 5806 5806 5806 5805 5806 5806 5806 5805 5805 5804 5803 5802 5802 5802 5802 5801 5800 5800 5799 5798 5798 5797 5797 5797 5796 5796 5796 5796 5795 5795 5794 5793 5792 5792 5791 5791 5792 5792 5792 5792 5792 5792 5793 5792 5792 5793 5793 5794 5794 5794
5792 5793 5793 5794 5795 5795 5795 5795 5795 5796 5796 5797 5796 5796 5797 5798 5798 5799 5800 5800 5801 5801 5802 5802 5803 5803 5802 5802 5802 5802 5803 5804 5804 5804 5804 5804 5805 5804 5803 5803 5804 5804 5803 5802 5801 5800 5800 5800 5800 5799 5798 5798 5798 5797 5796 5796 5796 5795 5795 5795 5794 5794 5794 5794 5794 5792 5791 5791 5790 5789 5790 5790 5790 5790 5791 5791 5791 5791 5790 5790 5791 5791 5791 5790 5790
5790 5790 5791 5792 5792 5793 5793 5793 5793 5794 5794 5795 5795 5795 5795 5796 5797 5797 5798 5798 5799 5799 5800 5800 5801 5801 5800 5800 5800 5800 5801 5802 5802 5802 5802 5802 5802 5802 5802 5802 5801 5801 5801 5800 5799 5798 5799 5799 5798 5797 5797 5796 5795 5795 5794 5794 5794 5794 5793 5793 5793 5793 5793 5793 5792 5791 5790 5790 5789 5788 5788 5789 5789 5789 5789 5789 5788 5788 5788 5788 5788 5788 5788 5788 5788
5788 5789 5789 5790 5790 5791 5791 5792 5792 5792 5793 5793 5793 5794 5794 5794 5795 5796 5796 5797 5797 5797 5798 5798 5798 5798 5798 5798 5798 5798 5799 5799 5800 5800 5800 5800 5800 5800 5800 5800 5800 5799 5798 5798 5797 5797 5797 5797 5796 5795 5795 5794 5794 5793 5792 5792 5792 5791 5791 5791 5791 5791 5791 5791 5791 5790 5789 5788 5788 5787 5787 5787 5787 5788 5787 5787 5787 5786 5786 5786 5786 5786 5785 5785 5786
5787 5787 5788 5788 5788 5789 5789 5790 5790 5791 5791 5791 5792 5792 5792 5792 5793 5794 5794 5795 5795 5795 5795 5796 5796 5796 5796 5796 5796 5797 5797 5797 5798 5798 5798 5798 5798 5798 5798 5798 5798 5797 5796 5795 5795 5796 5795 5795 5794 5794 5793 5793 5792 5791 5790 5790 5790 5789 5789 5789 5789 5789 5789 5789 5789 5788 5788 5787 5786 5785 5785 5785 5785 5785 5785 5785 5785 5784 5784 5784 5783 5783 5783 5782 5782
5785 5786 5786 5787 5787 5787 5787 5788 5789 5789 5790 5790 5790 5790 5791 5791 5791 5792 5792 5792 5793 5793 5793 5794 5794 5794 5794 5794 5795 5795 5796 5796 5795 5796 5796 5796 5796 5796 5797 5796 5795 5795 5794 5794 5794 5794 5794 5793 5792 5792 5792 5791 5790 5789 5789 5788 5788 5787 5787 5787 5787 5787 5787 5786 5786 5786 5785 5785 5784 5783 5783 5782 5782 5782 5782 5782 5782 5781 5781 5781 5781 5781 5780 5780 5780
5783 5784 5784 5785 5785 5785 5786 5786 5787 5787 5788 5788 5788 5788 5789 5789 5790 5790 5791 5791 5791 5791 5792 5792 5792 5792 5792 5793 5793 5793 5794 5794 5793 5794 5794 5794 5794 5794 5795 5794 5793 5793 5793 5792 5792 5792 5792 5791 5791 5791 5790 5789 5789 5788 5787 5787 5786 5786 5785 5785 5785 5785 5784 5784 5784 5783 5783 5782 5782 5781 5780 5779 5779 5779 5779 5779 5778 5778 5778 5778 5778 5778 5778 5778 5777
5782 5782 5783 5783 5784 5784 5784 5785 5785 5786 5786 5787 5787 5787 5787 5788 5788 5788 5789 5789 5790 5790 5790 5791 5790 5791 5791 5791 5791 5792 5792 5791 5791 5791 5792 5792 5792 5792 5792 5792 5791 5790 5791 5790 5790 5790 5790 5790 5790 5789 5789 5788 5787 5786 5786 5785 5785 5784 5784 5783 5783 5783 5783 5782 5782 5781 5781 5780 5779 5779 5778 5777 5776 5776 5776 5775 5775 5775 5775 5775 5775 5775 5775 5775 5775
5781 5781 5781 5782 5783 5783 5783 5784 5784 5785 5785 5785 5786 5786 5786 5786 5786 5786 5787 5787 5788 5788 5789 5789 5789 5789 5789 5790 5790 5790 5789 5789 5789 5789 5790 5790 5790 5790 5790 5790 5789 5789 5789 5788 5788 5789 5789 5788 5788 5787 5787 5786 5785 5785 5784 5784 5783 5783 5782 5782 5782 5781 5781 5781 5780 5779 5779 5778 5777 5777 5776 5775 5775 5774 5774 5773 5773 5772 5772 5772 5772 5772 5772 5772 5772
5780 5780 5780 5780 5781 5781 5782 5782 5782 5783 5783 5783 5784 5784 5784 5784 5784 5784 5785 5785 5786 5786 5786 5787 5787 5787 5787 5788 5788 5788 5787 5787 5787 5788 5788 5788 5788 5789 5788 5787 5787 5786 5786 5786 5786 5787 5787 5787 5786 5786 5785 5784 5784 5783 5783 5782 5782 5781 5781 5781 5780 5780 5779 5779 5778 5778 5777 5776 5776 5775 5774 5774 5773 5772 5772 5771 5771 5770 5770 5770 5770 5770 5770 5770 5769
5778 5778 5778 5778 5779 5780 5780 5780 5780 5781 5781 5781 5782 5782 5782 5783 5783 5783 5783 5783 5784 5784 5784 5784 5785 5785 5785 5786 5786 5786 5786 5786 5786 5786 5786 5786 5787 5786 5785 5785 5785 5784 5784 5784 5784 5785 5785 5785 5784 5784 5783 5782 5782 5782 5781 5781 5781 5780 5780 5779 5779 5778 5778 5778 5777 5776 5776 5775 5774 5774 5773 5772 5772 5771 5771 5770 5770 5769 5769 5768 5768 5768 5768 5768 5767
5776 5776 5776 5776 5777 5778 5779 5779 5779 5779 5779 5779 5779 5780 5780 5781 5781 5781 5781 5781 5781 5782 5782 5782 5783 5783 5784 5784 5784 5784 5784 5785 5785 5785 5784 5784 5784 5784 5783 5783 5783 5783 5782 5782 5783 5783 5783 5783 5782 5782 5781 5781 5780 5780 5780 5780 5779 5779 5779 5778 5777 5777 5777 5776 5776 5775 5775 5774 5773 5772 5772 5771 5771 5770 5770 5769 5769 5768 5768 5767 5767 5767 5766 5766 5766
5774 5774 5775 5775 5776 5776 5777 5777 5777 5777 5777 5777 5777 5778 5778 5778 5779 5779 5779 5779 5779 5780 5780 5780 5781 5781 5782 5782 5782 5782 5783 5783 5783 5783 5783 5783 5783 5782 5782 5782 5781 5781 5781 5781 5781 5781 5781 5781 5780 5780 5779 5779 5779 5778 5778 5778 5778 5778 5777 5777 5776 5775 5775 5774 5774 5774 5773 5773 5772 5771 5770 5770 5770 5769 5769 5768 5767 5767 5767 5766 5766 5765 5765 5764 5764
5773 5773 5773 5774 5774 5775 5775 5775 5775 5775 5775 5775 5775 5776 5776 5776 5777 5777 5777 5777 5777 5777 5778 5778 5778 5779 5779 5780 5780 5781 5781 5781 5781 5781 5781 5781 5781 5781 5780 5780 5780 5780 5780 5780 5780 5780 5779 5779 5778 5778 5777 5777 5777 5777 5777 5776 5776 5776 5776 5775 5775 5774 5773 5773 5772 5772 5772 5772 5771 5770 5769 5768 5768 5768 5767 5767 5766 5766 5765 5765 5764 5764 5763 5763 5763
5771 5772 5772 5773 5773 5773 5773 5773 5773 5773 5773 5773 5774 5774 5774 5774 5775 5775 5775 5775 5775 5775 5775 5776 5776 5776 5777 5778 5778 5778 5779 5779 5779 5779 5780 5780 5779 5779 5778 5778 5778 5778 5778 5778 5778 5778 5777 5777 5777 5776 5776 5775 5775 5776 5775 5775 5774 5774 5774 5774 5773 5772 5771 5771 5771 5770 5770 5770 5770 5769 5768 5767 5767 5766 5766 5765 5765 5764 5763 5763 5763 5762 5762 5761 5761
5770 5770 5771 5771 5772 5772 5772 5772 5772 5772 5772 5772 5772 5773 5773 5773 5773 5773 5773 5773 5773 5773 5773 5774 5774 5774 5775 5775 5776 5776 5776 5777 5777 5777 5777 5777 5777 5776 5776 5776 5777 5777 5777 5776 5776 5775 5775 5775 5775 5774 5774 5774 5773 5773 5773 5773 5773 5772 5772 5771 5770 5770 5770 5769 5769 5768 5768 5768 5768 5767 5766 5766 5765 5765 5764 5764 5763 5762 5762 5761 5761 5760 5760 5760 5759
5768 5768 5769 5769 5770 5770 5771 5771 5771 5771 5771 5771 5771 5771 5771 5771 5771 5771 5771 5771 5771 5771 5771 5772 5772 5772 5772 5773 5773 5773 5773 5773 5774 5774 5774 5774 5773 5773 5774 5774 5774 5775 5775 5774 5774 5773 5773 5773 5772 5772 5772 5772 5771 5771 5771 5771 5770 5770 5769 5769 5768 5768 5768 5768 5767 5766 5766 5766 5766 5766 5765 5764 5763 5763 5762 5762 5761 5760 5760 5759 5759 5758 5758 5757 5757
5766 5767 5767 5768 5768 5769 5769 5769 5769 5769 5769 5769 5769 5769 5770 5770 5769 5769 5769 5769 5769 5769 5769 5769 5770 5770 5770 5770 5770 5771 5770 5770 5771 5771 5771 5770 5770 5770 5771 5771 5771 5772 5772 5771 5771 5771 5772 5771 5771 5770 5770 5770 5770 5770 5769 5769 5768 5768 5767 5766 5766 5767 5766 5765 5765 5764 5763 5763 5763 5763 5763 5762 5761 5760 5760 5759 5759 5758 5757 5757 5756 5756 5755 5755 5754
5764 5765 5765 5766 5766 5767 5767 5767 5768 5768 5768 5768 5768 5768 5768 5768 5767 5767 5767 5767 5767 5767 5767 5767 5768 5768 5768 5768 5768 5768 5768 5768 5768 5768 5768 5768 5768 5768 5768 5768 5769 5769 5768 5768 5768 5769 5769 5769 5769 5769 5769 5768 5769 5769 5768 5768 5767 5766 5764 5764 5764 5764 5764 5763 5762 5761 5761 5761 5760 5760 5760 5759 5758 5757 5757 5756 5756 5755 5755 5754 5754 5753 5752 5752 5751
5762 5763 5763 5764 5764 5765 5765 5765 5766 5766 5766 5766 5766 5766 5766 5766 5766 5766 5766 5766 5766 5766 5766 5766 5766 5766 5765 5765 5765 5765 5765 5765 5765 5765 5765 5766 5766 5766 5766 5766 5766 5766 5766 5765 5766 5766 5767 5767 5767 5767 5767 5767 5767 5767 5766 5766 5765 5764 5762 5762 5762 5762 5761 5761 5760 5759 5759 5758 5757 5757 5756 5756 5755 5754 5753 5753 5752 5752 5751 5751 5750 5750 5749 5748 5747
5760 5761 5761 5761 5762 5762 5762 5763 5763 5764 5764 5764 5764 5764 5764 5764 5764 5764 5764 5764 5764 5764 5764 5764 5764 5764 5764 5763 5763 5763 5763 5763 5763 5763 5763 5763 5763 5763 5763 5764 5764 5764 5764 5763 5763 5764 5764 5764 5764 5764 5765 5765 5765 5764 5764 5763 5762 5761 5761 5760 5760 5760 5759 5758 5758 5757 5756 5756 5755 5754 5753 5752 5751 5751 5750 5749 5749 5748 5747 5747 5746 5746 5745 5744 5743
5757 5758 5758 5759 5759 5760 5760 5761 5761 5761 5761 5761 5762 5762 5763 5763 5762 5763 5762 5762 5762 5762 5762 5762 5762 5761 5761 5761 5761 5761 5761 5760 5760 5760 5760 5761 5761 5760 5760 5761 5761 5761 5761 5761 5761 5761 5761 5761 5761 5761 5761 5761 5762 5761 5761 5760 5759 5759 5758 5758 5758 5758 5757 5756 5755 5754 5754 5753 5753 5752 5751 5750 5749 5748 5747 5746 5745 5744 5743 5742 5741 5741 5740 5739 5738
5755 5756 5756 5757 5757 5757 5758 5758 5758 5759 5759 5759 5759 5760 5760 5760 5760 5760 5760 5760 5760 5759 5759 5759 5758 5758 5758 5758 5758 5758 5758 5758 5758 5758 5758 5758 5758 5758 5758 5758 5758 5758 5758 5758 5759 5758 5758 5758 5757 5757 5757 5757 5757 5757 5757 5757 5756 5756 5755 5755 5755 5754 5754 5753 5752 5752 5751 5750 5750 5749 5748 5747 5746 5745 5744 5743 5742 5740 5739 5738 5737 5736 5735 5734 5733
5753 5753 5754 5754 5755 5755 5755 5756 5756 5757 5757 5757 5757 5757 5757 5758 5758 5758 5758 5757 5757 5756 5756 5755 5755 5755 5755 5756 5756 5756 5756 5756 5756 5756 5755 5756 5756 5756 5756 5756 5756 5755 5755 5754 5755 5755 5755 5755 5754 5754 5754 5754 5753 5753 5753 5753 5753 5752 5752 5752 5751 5751 5750 5750 5749 5748 5747 5747 5746 5745 5745 5744 5742 5741 5740 5739 5737 5736 5735 5734 5732 5731 5729 5728 5727
5751 5751 5752 5752 5752 5753 5753 5754 5754 5754 5754 5755 5755 5755 5755 5755 5755 5755 5755 5755 5755 5754 5753 5753 5752 5752 5752 5752 5753 5753 5753 5753 5753 5753 5752 5753 5753 5753 5753 5753 5753 5753 5752 5751 5751 5751 5752 5752 5752 5751 5751 5751 5750 5750 5749 5749 5748 5749 5749 5748 5748 5747 5747 5746 5745 5744 5743 5743 5741 5740 5739 5739 5737 5736 5734 5733 5732 5730 5729 5728 5727 5726 5724 5723 5721
5748 5749 5749 5750 5750 5750 5751 5751 5752 5752 5752 5752 5752 5752 5752 5752 5752 5752 5752 5752 5752 5751 5751 5750 5750 5749 5749 5749 5749 5749 5749 5749 5749 5749 5749 5749 5749 5749 5749 5749 5749 5749 5749 5748 5747 5746 5747 5747 5747 5747 5747 5747 5746 5746 5745 5745 5744 5744 5744 5744 5743 5742 5742 5741 5740 5739 5739 5738 5737 5735 5734 5733 5732 5730 5729 5728 5726 5725 5723 5723 5722 5721 5719 5718 5716
5746 5746 5747 5747 5747 5748 5748 5748 5749 5749 5749 5749 5749 5749 5749 5749 5749 5749 5749 5749 5749 5749 5748 5747 5747 5747 5747 5747 5746 5746 5746 5746 5745 5745 5745 5745 5745 5745 5745 5745 5745 5745 5745 5745 5744 5743 5742 5742 5742 5742 5742 5742 5741 5741 5741 5741 5740 5740 5740 5739 5738 5738 5737 5736 5735 5734 5734 5734 5733 5731 5730 5729 5727 5725 5724 5723 5721 5719 5718 5717 5716 5715 5714 5712 5710
5743 5743 5743 5743 5744 5744 5745 5745 5746 5746 5746 5746 5747 5747 5747 5747 5746 5746 5746 5746 5746 5746 5745 5745 5745 5745 5744 5744 5744 5744 5744 5744 5743 5743 5742 5742 5741 5741 5741 5740 5741 5741 5741 5741 5740 5740 5738 5737 5737 5737 5737 5737 5737 5737 5736 5736 5736 5736 5736 5735 5734 5733 5733 5732 5731 5730 5729 5729 5728 5727 5725 5724 5722 5721 5719 5718 5716 5714 5713 5713 5711 5709 5707 5705 5704
5739 5739 5739 5740 5740 5741 5742 5742 5743 5743 5743 5743 5743 5744 5743 5743 5743 5743 5743 5743 5743 5742 5742 5742 5742 5742 5742 5742 5741 5741 5740 5740 5740 5739 5739 5738 5738 5737 5737 5737 5737 5736 5736 5736 5735 5735 5734 5733 5732 5732 5732 5732 5732 5731 5731 5731 5731 5731 5731 5731 5730 5729 5728 5727 5726 5725 5724 5724 5724 5722 5720 5719 5718 5716 5714 5712 5710 5709 5708 5707 5705 5703 5701 5699 5697
5735 5735 5735 5736 5737 5737 5738 5739 5739 5739 5739 5739 5739 5740 5740 5740 5739 5739 5739 5739 5739 5738 5738 5738 5738 5738 5739 5739 5738 5738 5737 5736 5735 5735 5734 5734 5734 5734 5733 5733 5733 5732 5732 5731 5730 5730 5729 5729 5728 5727 5726 5726 5726 5726 5726 5726 5726 5726 5726 5726 5725 5725 5724 5722 5721 5720 5720 5720 5719 5717 5715 5714 5713 5711 5709 5707 5704 5702 5702 5701 5698 5696 5694 5692 5690
5731 5732 5732 5733 5733 5734 5734 5735 5735 5735 5735 5735 5736 5735 5736 5736 5736 5735 5735 5735 5734 5733 5733 5733 5734 5734 5734 5734 5734 5734 5733 5733 5732 5731 5731 5731 5729 5729 5730 5730 5729 5728 5727 5726 5725 5724 5723 5723 5722 5722 5721 5721 5720 5720 5720 5720 5720 5720 5720 5720 5720 5719 5718 5717 5716 5715 5715 5714 5713 5712 5710 5709 5708 5706 5703 5701 5698 5696 5695 5693 5691 5689 5687 5685 5683
5727 5728 5728 5729 5729 5730 5730 5730 5730 5730 5730 5731 5731 5731 5731 5731 5731 5731 5731 5731 5730 5729 5729 5729 5729 5729 5729 5729 5729 5729 5728 5728 5728 5727 5728 5727 5725 5725 5725 5724 5723 5722 5721 5720 5720 5718 5717 5717 5716 5716 5715 5715 5714 5714 5714 5714 5714 5714 5714 5714 5713 5713 5712 5711 5710 5710 5709 5708 5707 5706 5704 5703 5702 5700 5697 5694 5692 5690 5688 5685 5682 5680 5678 5676 5675
5723 5723 5724 5724 5724 5725 5726 5726 5726 5726 5725 5725 5726 5726 5726 5726 5725 5726 5726 5726 5725 5725 5724 5724 5724 5724 5724 5725 5725 5724 5723 5722 5723 5722 5723 5722 5721 5721 5720 5719 5717 5717 5715 5714 5714 5712 5712 5711 5711 5710 5710 5710 5710 5709 5709 5709 5708 5708 5708 5707 5706 5706 5706 5705 5705 5704 5702 5702 5702 5700 5698 5697 5696 5694 5691 5688 5686 5683 5681 5678 5674 5671 5668 5667 5665
5718 5718 5718 5719 5719 5720 5720 5720 5720 5720 5720 5720 5719 5719 5719 5719 5719 5719 5720 5720 5720 5719 5718 5718 5718 5719 5719 5719 5720 5720 5718 5717 5717 5716 5716 5716 5715 5715 5715 5713 5713 5712 5711 5709 5707 5706 5705 5705 5705 5704 5704 5704 5704 5704 5704 5703 5703 5702 5702 5701 5700 5700 5700 5700 5699 5698 5697 5697 5696 5694 5692 5691 5689 5687 5685 5683 5680 5677 5674 5671 5666 5662 5660 5658 5656
5712 5712 5713 5713 5713 5713 5713 5713 5714 5714 5713 5713 5713 5712 5712 5712 5712 5712 5712 5713 5713 5712 5712 5711 5711 5712 5712 5712 5713 5713 5712 5712 5711 5710 5709 5709 5709 5709 5708 5707 5707 5706 5705 5703 5701 5700 5699 5699 5698 5699 5698 5699 5699 5698 5698 5698 5697 5697 5696 5695 5695 5695 5695 5695 5694 5693 5691 5691 5690 5688 5686 5684 5682 5680 5678 5677 5675 5671 5667 5663 5659 5655 5652 5650 5647